Simultaneous Nadir Overpasses (SNOs) Predictions

Prediction of SNOs between GOES-16 and NPP Satellite Orbit:

Table of predicted SNOs for the next 14.0 days since TLE Epoch: 4/6/2017
Index Date Time (GOES-16) GOES-16 Lat,Lon NPP Lat,Lon Distance(km) Time Diff (sec)
1 04/07/2017 19:13:35 -0.01, -89.48 0.54, -86.91 292.16 80
2 04/09/2017 07:35:23 0.01, -89.51 0.63, -92.18 305.21 80
3 04/10/2017 07:13:59 0.01, -89.51 -0.43, -87.66 211.95 80
4 04/11/2017 19:35:56 -0.01, -89.51 -0.78, -92.96 392.85 80
5 04/12/2017 19:19:51 -0.01, -89.53 0.22, -88.43 124.82 80
6 04/14/2017 07:41:40 0.01, -89.57 0.96, -93.70 471.47 80
7 04/15/2017 07:20:16 0.00, -89.58 -0.11, -89.18 46.05 80
8 04/17/2017 19:23:28 -0.00, -89.59 -0.09, -89.95 40.90 80
9 04/18/2017 19:07:23 -0.00, -89.61 0.92, -85.42 477.09 80
10 04/20/2017 07:29:12 0.00, -89.65 0.26, -90.69 118.60 80




NCC Satellite Simultaneous Nadir Overpasses (SNOs) Prediction Service
